GFSMA_700_rhum_288.txt.gz
RH
13 13 12 9 7 5 5 6 7 8 8 8 7 7 7 6 6 8 9 10 68 19 10 9 9 9 9 10 10 11 12 12 13 12 12 11 10 10 9 9 10 10 11
13 13 14 13 11 8 7 6 7 8 8 8 8 8 8 7 8 9 14 60 51 20 10 10 10 10 10 10 11 11 11 13 13 13 11 11 10 10 10 10 11 12 13
14 13 14 14 13 11 9 8 7 8 9 8 8 8 8 8 9 15 78 76 25 28 10 10 11 11 11 12 12 11 11 12 13 14 13 11 10 10 10 11 12 14 16
16 14 14 14 12 12 11 9 8 8 9 9 9 9 9 9 10 11 41 30 17 16 11 11 11 12 12 12 12 11 11 10 11 12 14 12 11 11 11 12 13 15 17
22 17 15 14 12 10 10 10 9 8 9 9 10 9 9 10 10 11 13 31 21 15 12 13 13 12 14 14 13 12 11 10 10 10 12 12 12 12 12 13 14 16 18
52 30 18 15 13 11 9 8 8 8 9 9 10 10 10 10 10 11 13 18 16 14 14 13 17 15 15 14 14 13 12 11 10 10 11 12 12 13 14 14 15 16 18
78 76 37 18 15 14 12 9 8 8 8 9 10 11 10 10 11 12 13 16 36 17 17 16 21 24 20 17 15 15 14 13 12 12 12 12 13 12 13 14 16 17 19
90 86 73 44 21 16 15 13 10 9 8 9 11 12 11 11 11 12 13 14 16 19 22 44 33 36 26 34 25 20 20 20 17 15 15 14 13 14 14 15 17 18 20
75 76 71 75 64 32 18 15 13 11 10 10 12 12 12 11 12 12 13 13 15 23 66 41 66 79 55 58 46 42 37 33 28 24 18 16 15 15 16 17 18 20 21
99 79 67 72 78 78 63 24 17 15 13 12 12 12 12 13 16 14 15 15 15 16 22 59 78 100 97 100 90 98 53 41 38 37 27 20 18 17 17 19 21 21 23
99 97 89 80 92 80 85 82 67 23 16 14 13 13 13 14 16 16 16 18 18 19 23 38 95 98 92 100 99 92 96 72 84 46 35 30 23 18 18 19 21 24 25
100 90 88 100 98 94 87 84 82 78 62 20 16 15 14 14 17 18 19 20 20 22 25 44 88 89 97 87 94 100 84 98 99 81 60 50 29 21 20 22 24 27 29
99 92 83 95 99 99 92 70 89 94 85 72 34 18 17 16 16 18 20 20 20 19 21 22 28 25 30 68 64 100 96 100 100 99 95 96 43 22 23 25 28 29 32
94 83 75 80 100 99 96 82 84 87 85 87 87 81 52 20 18 18 19 21 22 20 19 19 22 24 26 27 33 54 99 99 92 50 74 95 73 46 24 25 31 33 32
92 84 63 73 100 93 90 100 98 87 78 100 100 90 82 36 24 21 20 20 21 20 20 21 21 24 25 26 28 29 36 74 26 75 45 72 38 36 31 30 35 39 39
90 51 53 70 89 87 84 87 97 85 90 98 100 99 85 84 85 37 30 24 24 23 21 21 22 25 29 30 31 32 29 29 29 28 36 32 34 35 34 37 41 41 44
52 28 27 24 49 69 99 99 99 88 93 95 91 96 98 89 92 99 98 96 83 50 50 29 24 25 28 30 31 33 34 32 32 32 32 32 60 40 40 41 42 45 45
52 50 46 30 50 76 93 100 88 84 83 88 72 85 98 94 100 92 96 94 100 100 97 90 62 35 28 29 31 32 34 36 35 34 38 40 42 50 46 46 46 46 51
80 77 73 60 37 52 86 87 77 74 71 66 85 100 82 87 92 83 97 93 100 95 97 96 88 61 38 31 31 31 34 40 41 40 43 42 44 47 48 49 49 51 54
76 76 78 75 81 56 49 64 69 81 76 98 100 90 90 87 88 90 89 96 90 100 96 98 96 89 67 61 38 33 36 39 45 47 46 46 44 46 47 47 53 58 74
56 59 66 54 52 75 60 68 81 82 64 74 81 85 92 82 93 93 95 99 100 99 99 100 98 99 97 96 63 55 51 66 43 44 48 50 47 48 49 59 59 86 97
62 65 66 63 53 69 84 71 66 64 53 50 49 60 68 76 94 92 85 100 94 100 100 98 99 97 99 94 95 93 92 59 61 53 54 56 57 56 55 60 72 96 97
91 72 74 67 60 70 89 74 49 50 91 99 90 71 68 67 80 86 93 98 100 99 100 100 100 100 100 100 98 82 71 76 79 75 73 70 67 62 61 78 94 97 97
88 87 80 68 60 65 90 68 75 90 81 73 67 65 57 84 71 84 88 99 99 99 100 99 99 100 99 100 100 95 91 88 91 85 76 74 72 75 82 94 98 96 96
88 85 83 87 100 94 89 90 88 81 77 70 59 97 80 100 88 84 100 95 94 98 95 100 100 100 100 99 100 94 87 89 83 85 88 86 94 98 98 98 98 98 97
99 98 99 100 100 100 100 96 85 70 62 57 89 99 100 99 100 100 95 92 91 97 100 100 100 97 98 97 89 84 89 99 100 100 100 98 99 98 97 99 98 97 97

GFSMA_700_rhum_291.txt.gz
RH
11 9 7 5 4 5 4 5 6 7 7 7 7 6 6 6 6 6 7 8 26 18 9 8 9 9 9 10 10 11 11 12 12 12 12 12 10 10 10 10 12 13 16
12 12 11 9 6 5 4 5 7 8 8 8 7 7 7 6 6 7 11 14 32 72 11 10 10 10 10 11 10 11 11 11 12 12 12 12 11 10 10 11 12 14 16
13 12 13 13 11 8 6 6 7 8 8 8 8 8 7 7 8 10 20 60 100 74 14 12 11 10 10 12 11 11 10 11 11 11 12 12 12 11 11 11 12 14 16
14 13 13 13 14 12 9 8 7 8 8 8 8 8 8 8 9 32 77 100 87 68 24 16 12 11 11 12 12 11 10 10 11 10 11 11 11 11 11 12 13 15 16
20 15 14 14 14 14 12 10 8 8 8 9 9 9 9 10 10 21 92 90 90 89 14 17 14 12 12 13 13 12 12 11 11 11 10 11 11 12 11 12 14 14 16
40 24 16 14 14 13 12 12 10 9 9 9 10 10 9 10 11 11 18 71 57 29 16 14 15 15 14 15 14 13 12 12 12 11 11 10 12 12 12 12 12 14 16
80 53 26 17 14 14 12 10 10 9 9 9 9 10 10 10 10 12 14 44 45 30 20 13 15 18 21 16 16 15 14 13 12 12 11 12 12 12 13 13 13 15 18
93 96 68 34 18 15 13 11 10 9 8 8 9 11 11 10 10 12 14 15 34 45 28 17 19 27 37 27 21 18 17 17 18 18 17 16 15 14 14 14 15 16 17
95 93 82 80 47 20 16 14 12 10 9 8 9 11 12 10 10 11 12 14 16 25 23 22 27 41 35 44 54 43 36 30 30 29 27 25 20 17 16 16 16 17 18
95 93 82 84 85 55 24 17 15 13 11 10 10 11 11 12 13 12 13 14 16 19 19 23 28 49 44 94 100 96 68 35 56 45 43 44 37 26 20 19 17 17 19
95 76 83 78 77 78 65 53 27 16 15 13 12 12 12 12 12 14 14 15 14 15 16 19 30 38 90 95 99 96 100 88 70 58 44 60 57 46 28 20 21 21 21
91 82 98 91 72 78 69 78 75 59 31 21 16 14 13 14 15 16 17 15 16 17 16 16 17 28 57 99 99 95 98 100 94 96 100 98 74 68 43 27 22 23 24
92 92 98 100 86 84 84 87 79 77 80 77 65 39 16 14 15 16 18 17 16 17 15 16 17 20 85 72 63 70 68 84 100 86 100 100 99 93 76 35 24 26 28
99 92 94 99 99 90 100 89 92 87 78 82 80 50 46 27 17 16 17 19 17 21 16 17 17 18 22 26 29 30 32 45 60 74 98 99 100 91 98 82 40 28 27
100 96 97 100 100 94 90 99 100 97 75 92 89 84 76 76 64 37 20 19 19 19 19 17 19 20 22 22 24 27 26 28 30 85 99 100 72 71 63 75 35 32 33
93 94 98 99 95 92 95 95 100 93 83 99 89 86 86 99 94 83 45 27 24 22 22 22 21 21 22 24 23 24 26 28 28 29 33 46 31 48 40 54 42 38 40
70 92 96 100 92 90 70 90 100 94 84 98 94 88 92 98 94 88 84 84 63 33 51 40 41 28 37 29 27 26 25 25 27 31 34 34 33 35 97 47 88 90 48
67 77 91 97 94 86 75 73 100 88 76 100 99 90 93 98 98 97 100 90 94 100 98 93 98 89 84 81 52 31 30 27 27 29 35 36 38 40 49 44 91 100 54
96 96 99 99 80 53 29 37 60 82 98 99 99 87 89 93 99 78 83 96 98 99 99 98 100 97 91 86 88 76 56 34 33 33 35 38 41 44 47 46 48 64 53
98 99 97 73 48 47 42 34 68 78 87 92 96 77 76 71 74 93 98 98 95 96 98 93 93 99 100 86 92 94 78 69 78 42 40 45 45 46 46 51 54 55 54
72 87 79 71 81 77 74 66 49 72 91 100 87 71 78 84 95 100 95 86 90 89 99 99 100 98 98 92 97 100 98 100 93 64 65 66 62 57 59 58 56 56 61
64 60 68 80 82 77 78 80 82 67 53 65 72 73 78 86 99 99 91 91 91 94 99 100 99 95 98 100 99 100 99 99 97 94 92 86 68 63 62 64 69 71 71
72 66 66 68 67 61 76 65 51 70 71 62 72 82 81 65 58 57 62 87 78 99 100 100 97 98 100 99 100 99 100 100 100 97 82 73 73 79 82 79 82 78 79
76 68 67 66 69 68 68 66 59 58 76 81 72 64 58 55 67 84 84 89 88 100 100 87 99 100 99 99 98 99 100 100 99 97 93 93 95 95 94 84 77 92 99
78 97 98 95 94 87 81 72 66 59 65 88 68 52 68 86 86 75 72 69 100 87 98 100 100 100 100 99 99 100 100 100 96 96 100 99 89 94 96 99 100 100 99
100 99 100 96 98 100 86 80 66 62 74 84 70 86 78 75 74 72 89 99 96 92 100 100 100 100 100 100 99 100 98 99 99 87 93 100 100 99 98 100 100 99 98

GFSMA_700_rhum_294.txt.gz
RH
9 8 6 5 5 5 5 4 5 6 6 6 6 6 5 5 4 6 6 6 7 7 7 8 8 8 9 9 9 10 10 11 11 11 11 10 10 10 10 11 12 14 16
11 10 9 7 5 5 4 5 4 6 7 7 6 6 6 6 6 6 6 7 8 10 9 9 9 9 9 9 10 10 10 10 11 11 11 11 10 10 10 11 12 14 16
13 11 11 11 9 5 4 5 4 6 7 7 7 7 7 6 7 7 9 11 19 16 21 10 10 10 10 10 10 10 10 10 11 11 11 10 10 11 10 11 13 14 16
18 13 12 12 12 10 7 5 5 6 7 7 8 7 7 7 7 8 13 25 97 80 31 18 14 10 10 11 11 11 11 11 10 10 10 10 11 11 11 11 12 14 16
33 18 14 12 13 13 12 9 7 6 7 7 8 8 8 8 8 10 19 42 93 99 73 24 22 14 12 12 11 12 12 11 11 10 11 11 11 11 12 12 12 14 14
48 33 19 14 14 13 14 13 10 8 8 8 8 9 9 9 9 22 59 89 100 99 85 34 27 16 15 13 13 13 13 12 12 12 12 11 11 11 12 12 12 13 14
52 49 29 20 15 14 14 14 12 10 9 9 9 9 9 10 10 11 13 56 67 72 54 26 14 15 16 17 16 16 14 14 14 13 12 12 12 12 12 12 13 13 14
83 63 52 34 22 15 14 14 12 12 11 10 9 10 10 10 9 11 12 13 14 23 26 32 18 16 18 17 24 19 18 18 17 17 18 18 18 16 15 15 15 14 14
100 89 65 62 44 22 16 14 12 11 10 10 10 10 10 9 10 11 11 14 17 13 21 22 20 23 28 22 35 33 30 29 27 25 29 30 29 27 24 21 18 16 15
100 98 97 86 74 54 26 17 14 12 11 10 10 9 9 9 11 12 13 14 18 16 16 22 17 22 20 33 53 61 58 52 48 46 44 53 42 37 38 38 30 21 18
82 100 99 97 83 68 68 36 18 15 13 12 11 10 10 10 10 12 14 15 14 15 16 16 18 19 21 38 53 88 90 97 88 85 77 87 78 39 54 48 54 38 24
100 87 100 99 96 79 72 80 44 21 18 16 14 12 12 12 11 12 12 13 17 17 17 17 17 19 35 40 59 90 100 98 86 94 95 83 98 96 82 69 72 56 44
70 99 96 99 76 73 67 72 77 63 49 36 20 17 16 14 13 14 14 12 13 16 14 15 15 17 21 23 32 61 88 86 94 72 94 95 95 87 100 99 89 37 42
70 65 100 99 81 88 83 75 79 76 77 74 71 69 62 40 21 15 15 18 14 14 15 16 16 17 19 21 26 50 52 29 37 38 65 73 94 86 82 98 98 58 49
78 87 86 100 96 91 97 97 87 88 86 82 83 76 73 73 37 24 22 19 17 16 16 16 16 20 19 19 22 24 25 25 26 27 31 33 69 84 100 79 87 69 57
55 88 94 97 96 93 92 95 100 100 98 98 90 82 78 84 77 74 67 58 48 28 23 23 21 20 22 21 23 23 24 24 23 25 29 32 35 38 36 47 35 36 59
50 64 84 83 97 98 93 94 100 98 96 96 100 91 88 90 80 76 92 91 69 60 59 48 36 37 48 47 34 43 37 31 26 26 29 32 34 37 38 38 36 38 100
50 42 63 83 94 95 98 100 99 100 94 95 99 100 91 92 87 86 98 99 97 89 91 84 76 74 95 89 86 92 89 88 80 46 37 32 32 34 38 41 43 50 90
58 46 45 56 83 89 95 100 100 88 77 94 99 99 96 100 96 94 100 93 100 100 99 94 86 96 98 89 97 88 99 98 91 77 62 38 47 43 40 43 48 52 58
80 55 50 51 57 70 100 100 99 91 79 77 96 98 91 84 98 89 90 98 100 88 84 93 100 96 100 98 90 82 99 99 99 99 97 81 92 57 45 59 74 69 68
69 64 60 76 85 78 92 92 80 88 42 38 58 87 74 98 84 90 80 80 84 93 100 100 99 100 91 99 88 100 100 100 99 98 99 100 99 90 76 81 68 62 62
84 72 69 86 98 97 89 85 62 44 42 38 44 72 74 93 92 83 78 76 98 100 100 100 98 99 99 90 99 99 98 100 98 99 99 99 99 99 98 96 81 72 79
85 66 79 80 96 99 99 85 79 81 77 71 56 69 100 95 99 82 77 81 95 100 99 98 96 92 91 100 100 100 100 100 99 99 99 97 100 98 93 84 87 96 95
93 99 93 75 83 90 89 88 91 89 84 76 73 73 64 61 75 82 84 78 73 63 65 62 96 85 99 100 97 96 100 99 96 93 100 99 97 96 97 96 97 96 89
98 89 85 100 89 76 79 89 94 82 78 75 59 55 64 74 70 74 81 78 66 62 86 78 100 97 99 96 97 99 99 100 100 99 99 98 92 94 95 97 92 98 99
97 99 97 100 100 90 98 99 98 77 72 69 68 63 65 72 85 74 56 58 63 95 95 84 89 95 96 100 100 97 98 98 98 100 100 100 90 99 88 88 99 100 94

GFSMA_700_rhum_300.txt.gz
RH
22 20 14 10 8 6 6 6 5 5 5 6 6 5 4 4 4 4 4 4 5 6 7 7 7 7 8 8 9 10 10 10 11 11 11 11 11 11 11 11 12 13 15
27 24 18 13 9 7 6 6 5 5 5 6 7 6 5 5 4 4 4 4 4 6 6 7 8 7 8 8 9 10 11 11 11 11 11 11 11 10 11 11 11 12 14
76 40 21 17 11 9 7 6 6 5 5 5 6 7 6 6 6 6 6 5 6 6 6 8 9 8 8 9 9 10 10 11 11 11 11 11 11 10 10 11 11 12 13
81 75 37 19 15 11 10 7 5 5 5 5 6 7 7 7 6 6 6 6 6 6 7 11 14 11 9 9 10 10 11 11 11 11 11 11 11 10 11 11 12 12 12
64 59 57 38 20 13 12 11 8 5 5 5 5 6 7 8 7 7 8 8 8 10 16 18 24 32 12 11 11 11 11 11 12 11 11 11 11 11 11 11 12 12 12
93 62 38 53 36 20 14 13 12 9 6 5 5 6 8 8 8 8 9 35 40 24 42 32 67 30 28 15 12 13 12 12 12 13 12 12 12 12 12 12 11 12 12
82 76 39 40 51 34 20 15 14 13 9 6 6 6 7 8 9 9 11 18 85 48 30 100 100 97 46 35 14 16 14 13 13 14 14 14 14 14 13 14 14 14 15
80 84 62 43 45 56 34 20 15 14 14 11 10 8 9 9 9 10 10 23 56 48 74 96 74 66 51 47 23 16 16 16 16 16 16 17 18 18 19 21 24 22 23
71 76 77 55 56 61 55 36 21 15 15 14 13 12 10 9 10 11 11 19 55 95 100 99 70 31 43 33 25 20 19 20 22 25 23 24 26 28 30 34 41 38 38
69 69 69 64 66 78 72 52 33 22 17 16 15 14 12 12 12 13 12 25 54 29 38 42 41 46 36 26 22 22 22 27 37 41 42 54 54 50 55 58 57 56 54
80 71 69 69 67 85 88 85 60 37 22 17 15 15 15 13 12 12 15 15 14 32 21 18 33 33 35 28 26 24 24 31 55 43 91 68 68 46 69 84 85 81 62
80 81 71 66 67 92 96 100 90 76 58 26 17 15 14 14 13 12 12 14 17 16 16 17 18 20 20 24 29 30 24 23 54 73 83 100 99 91 87 87 96 98 99
99 70 69 64 60 82 99 99 100 98 92 57 27 17 14 13 13 15 14 14 15 14 16 16 15 17 20 20 24 29 25 24 33 62 78 100 91 86 84 85 88 96 95
90 97 75 65 56 58 94 98 100 100 100 93 73 31 17 14 14 13 13 14 14 14 13 12 17 17 17 20 22 25 26 57 81 46 96 92 78 80 82 78 82 85 87
99 99 99 69 71 59 75 89 100 100 100 96 99 68 24 18 16 16 14 14 14 15 14 15 15 17 18 19 20 21 22 26 33 67 51 74 79 59 68 63 89 76 75
99 97 98 100 68 64 75 69 95 100 100 100 96 94 57 26 20 18 17 16 16 17 18 18 18 18 22 20 21 21 21 24 24 26 31 32 30 36 60 36 42 62 54
93 100 99 98 84 67 62 65 73 83 95 98 100 100 96 75 55 34 31 33 42 52 58 27 29 26 24 22 23 24 24 28 27 28 30 34 34 36 35 34 34 38 44
96 98 99 100 89 76 59 64 64 77 99 96 100 99 100 89 86 62 62 70 69 70 52 67 68 80 55 39 35 39 34 50 78 95 96 96 96 99 99 86 60 52 40
74 65 90 99 100 97 64 54 64 97 93 100 100 92 95 93 87 95 97 90 88 72 71 80 94 96 82 56 60 61 71 92 100 99 100 100 100 100 93 94 93 87 60
72 55 63 99 99 99 83 53 58 89 99 99 94 99 100 85 94 96 99 100 98 78 90 90 86 87 94 99 98 93 91 93 99 100 100 100 100 100 100 100 99 98 92
73 69 61 71 100 99 97 62 64 84 99 96 89 100 99 92 96 99 99 100 100 100 100 100 86 96 90 97 97 79 84 97 99 100 94 90 94 99 99 97 99 100 96
31 65 69 66 98 98 98 68 49 57 98 99 100 95 99 92 92 97 100 100 100 100 100 99 99 97 99 95 99 94 100 100 99 83 99 86 90 95 84 97 99 99 96
47 49 70 70 98 98 99 91 70 75 99 100 97 98 92 94 98 100 96 95 87 89 88 86 99 99 84 76 88 98 97 98 99 94 98 84 93 83 92 94 89 99 98
48 54 55 73 94 99 98 98 86 70 58 65 75 84 93 95 98 92 98 100 100 98 100 99 98 95 85 72 92 100 99 98 99 95 99 99 84 97 80 92 99 98 90
71 75 45 60 86 94 98 92 90 83 72 56 50 60 89 89 100 100 95 88 99 93 98 91 98 99 86 86 98 96 98 98 77 75 90 91 93 83 98 92 98 97 93
88 82 46 67 99 92 90 86 78 98 82 64 51 57 64 87 100 99 99 90 99 69 89 96 89 98 84 87 97 100 96 84 86 92 95 99 93 96 99 94 95 88 92

GFSMA_700_rhum_303.txt.gz
RH
68 46 36 34 48 55 29 12 9 9 6 6 6 6 5 4 4 4 4 4 5 5 7 8 7 6 7 8 9 10 10 11 11 11 11 12 11 11 11 11 12 13 14
73 56 44 31 24 17 13 11 8 8 7 6 6 6 6 5 4 4 4 4 4 4 5 7 8 6 7 8 9 10 11 11 11 11 11 11 11 11 11 11 11 11 12
99 100 70 40 35 25 18 11 9 8 6 6 5 6 7 6 6 5 5 4 4 4 5 6 7 7 8 8 9 10 11 11 12 12 12 12 12 11 11 11 11 11 12
100 100 100 96 69 32 22 12 9 8 7 7 6 6 7 7 7 7 6 6 6 5 6 7 10 18 9 11 10 11 11 11 11 11 11 12 12 12 11 11 12 12 12
80 97 99 99 86 61 30 19 12 9 7 7 6 6 7 8 8 8 8 7 7 7 8 8 18 75 32 12 11 11 11 12 12 12 12 11 11 11 12 12 12 12 12
85 87 97 73 79 56 56 28 18 13 10 8 8 6 6 8 9 9 9 9 8 8 19 15 33 55 51 19 14 14 12 12 12 12 13 12 12 13 12 13 12 12 13
98 93 87 98 85 48 62 50 32 18 14 10 8 7 6 7 8 9 10 12 15 24 33 25 39 48 63 34 24 21 15 14 14 14 14 14 14 14 14 14 15 18 18
99 99 96 97 90 76 45 55 48 24 17 15 10 8 9 7 7 9 10 12 23 87 74 56 50 100 63 52 43 24 23 16 16 18 17 16 16 17 19 20 23 28 31
96 99 99 97 98 99 63 50 71 48 22 17 15 12 10 8 8 9 9 12 18 83 88 60 98 99 72 59 40 27 25 17 17 22 23 23 23 24 29 34 38 43 40
89 89 100 98 97 96 93 62 81 74 47 22 20 18 15 14 13 12 12 11 16 55 94 70 84 100 95 45 27 27 27 21 20 22 33 35 38 50 56 57 53 59 64
98 92 87 99 90 87 96 81 70 71 70 45 23 20 18 16 14 13 14 14 14 22 38 91 100 92 78 32 37 33 29 29 21 22 36 35 74 68 73 79 81 76 90
90 99 78 84 89 78 83 82 91 95 76 74 48 24 19 18 16 15 14 16 18 18 44 24 56 34 37 27 32 38 33 32 30 28 40 50 94 98 99 92 94 100 100
86 99 98 90 100 78 86 81 88 100 98 97 73 49 25 20 18 23 23 19 21 18 17 17 18 19 21 22 24 30 30 30 32 31 33 56 82 98 97 87 89 90 97
90 95 100 99 96 86 98 80 82 83 100 98 96 86 61 26 20 21 20 19 20 17 17 12 13 17 20 19 35 72 36 30 33 38 50 78 81 88 78 82 84 81 88
76 85 98 100 98 96 98 92 88 77 88 100 100 100 94 50 23 19 20 19 20 17 14 13 13 13 16 21 20 24 24 28 28 34 77 67 71 84 82 86 81 89 91
61 85 97 99 99 100 100 94 89 91 75 92 100 99 96 87 54 24 20 21 20 19 15 16 16 17 19 20 18 18 20 23 30 43 90 49 51 61 82 70 51 47 41
41 39 84 90 100 100 98 100 88 82 75 90 100 100 98 100 90 38 22 19 20 19 16 17 18 20 20 18 18 19 20 22 24 25 33 38 32 29 36 48 36 37 37
18 38 82 80 100 99 100 100 100 96 99 98 96 99 100 100 97 79 25 22 21 18 18 18 22 24 25 22 24 22 22 24 24 25 29 31 33 44 58 72 88 87 85
10 26 44 76 84 100 100 99 98 97 83 72 99 88 95 99 97 98 80 33 23 22 23 36 41 40 31 37 51 52 36 32 38 38 68 87 95 93 88 96 100 97 92
12 10 22 40 67 83 98 99 98 99 100 92 74 63 97 87 100 80 99 88 66 52 55 61 64 42 53 80 92 75 50 57 63 74 97 100 98 100 98 99 92 100 98
20 17 9 15 42 75 97 98 99 100 100 92 63 62 73 97 100 99 100 100 88 85 86 92 77 62 79 85 77 76 95 99 99 100 100 100 98 100 99 100 99 99 99
43 23 15 9 27 51 84 90 100 100 98 100 64 59 71 96 97 100 100 99 100 100 98 100 96 82 90 86 87 86 94 91 100 97 100 99 100 93 91 91 100 88 89
55 38 26 14 15 34 66 92 91 99 100 100 65 52 96 93 96 100 99 99 100 100 100 100 99 97 99 100 94 94 94 93 96 88 100 100 99 92 85 88 84 86 92
73 52 33 26 12 23 60 80 86 96 99 100 78 56 84 93 88 98 99 96 98 91 100 98 99 100 100 99 100 99 100 99 90 94 100 99 100 99 98 87 93 84 90
88 74 54 30 17 13 44 72 77 96 98 98 93 80 85 87 86 86 99 100 98 97 99 100 100 98 99 96 98 100 96 80 97 96 100 97 90 89 79 87 93 92 86
96 90 70 49 34 18 22 57 69 83 96 99 99 77 82 84 86 96 91 92 98 96 100 99 97 97 100 100 100 100 100 83 78 88 93 94 95 85 83 85 96 89 95

GFSMA_700_rhum_306.txt.gz
RH
68 69 59 50 98 90 97 99 87 55 16 11 7 7 6 5 5 5 5 5 5 4 7 9 7 6 7 8 8 10 10 10 11 11 11 12 12 12 12 12 12 12 13
88 81 78 68 48 41 36 30 23 15 10 9 8 6 7 6 5 5 5 5 5 5 4 6 8 6 6 8 8 10 10 11 11 11 11 11 12 11 11 11 11 11 11
93 93 87 68 62 52 46 32 22 17 10 9 8 6 7 7 6 6 5 5 5 4 4 5 7 14 8 8 9 10 11 11 11 12 12 12 12 12 11 11 11 11 12
95 99 97 97 100 98 80 51 28 17 11 10 9 7 6 8 8 7 6 6 6 5 5 5 10 20 18 9 9 10 10 11 12 12 12 12 12 12 12 12 11 11 12
99 98 93 98 100 99 98 79 39 27 15 10 9 9 7 6 8 8 7 7 7 7 7 7 8 64 94 17 12 10 11 11 12 12 12 12 12 11 11 12 12 12 12
85 99 98 87 97 100 98 78 61 38 22 16 11 9 8 6 7 8 8 8 8 8 9 9 11 35 98 56 18 14 12 12 12 12 12 12 12 12 12 13 13 13 13
100 88 100 92 89 94 94 88 62 60 30 21 16 11 9 8 7 7 9 9 9 9 9 9 18 48 97 80 36 25 16 14 13 13 13 13 13 14 14 14 14 15 18
93 100 100 97 85 90 93 100 74 70 51 34 20 18 14 10 7 7 8 9 10 11 13 22 27 43 43 72 69 36 32 20 16 15 15 15 14 16 16 17 18 21 26
43 89 98 100 94 97 96 100 93 69 60 56 32 21 18 12 9 9 7 8 11 13 23 53 49 51 74 99 67 60 44 33 22 18 18 20 20 20 22 23 27 34 39
26 43 88 99 100 100 100 99 100 82 62 66 62 30 21 18 16 13 14 10 11 15 23 75 86 83 63 99 87 58 45 35 29 21 18 20 26 33 35 42 48 46 42
11 18 48 91 100 100 98 100 99 97 97 74 74 66 34 20 17 15 13 21 17 16 19 31 75 84 72 89 99 61 45 36 29 23 20 18 32 32 55 60 67 73 72
6 9 23 50 98 100 100 97 100 99 78 84 74 66 66 34 19 17 16 17 20 24 19 30 87 73 99 99 98 72 45 43 34 29 23 20 28 37 51 91 98 90 94
4 5 10 41 75 100 98 100 100 100 97 85 85 88 77 69 46 24 21 20 21 19 23 34 35 74 69 98 97 61 45 40 43 36 33 27 31 54 82 90 100 89 93
3 4 8 23 60 98 100 100 96 86 98 99 100 96 100 99 90 57 26 22 24 23 22 21 27 80 32 64 43 44 31 30 37 36 38 40 60 75 82 85 89 91 93
4 3 5 13 80 94 99 100 99 98 100 98 99 98 95 94 99 90 62 26 24 25 18 19 17 23 26 36 27 38 33 32 38 37 32 37 62 79 86 88 89 88 89
6 4 4 6 18 96 100 100 99 100 100 94 97 99 75 100 91 100 90 47 22 26 23 20 20 18 25 33 30 34 40 45 50 42 33 39 46 82 73 79 89 80 86
3 5 5 4 8 33 100 99 99 98 93 96 100 93 100 98 99 94 100 84 38 22 20 20 23 24 19 20 24 33 34 27 24 30 28 36 84 85 81 78 79 67 79
3 3 4 5 4 13 38 98 100 99 100 99 99 91 97 99 98 100 100 100 85 30 20 20 19 22 19 21 20 20 21 21 21 23 24 40 74 68 69 84 82 73 43
10 6 3 3 5 4 16 81 98 100 100 99 97 100 97 98 99 98 100 97 100 70 27 19 18 22 21 22 25 23 21 21 24 23 25 24 26 28 31 37 51 82 96
30 20 12 5 3 4 5 25 86 97 100 100 99 100 98 99 90 100 99 100 100 95 44 23 20 19 22 20 26 30 28 26 28 32 30 29 34 55 82 98 92 90 90
40 35 24 15 7 3 4 5 60 96 94 100 100 100 99 98 97 98 90 90 95 100 97 54 22 21 21 26 36 51 37 51 67 48 46 43 60 84 92 93 97 100 98
57 48 39 28 16 6 2 4 9 42 95 98 99 98 98 98 98 78 94 100 99 99 97 93 41 34 36 46 56 46 57 88 83 75 84 83 86 95 100 99 90 98 90
70 65 58 52 35 15 4 2 4 16 62 92 85 99 100 97 100 100 90 77 100 98 100 92 87 66 59 63 73 55 86 86 81 97 99 99 99 96 86 94 95 100 93
80 77 71 65 58 31 13 4 3 5 30 75 79 99 98 100 100 100 78 72 99 100 100 98 90 79 86 91 91 75 100 97 100 100 99 98 94 89 99 99 99 92 96
78 75 75 71 66 46 29 10 5 5 9 39 68 97 99 98 98 99 68 76 100 96 100 100 98 99 99 100 100 98 98 99 99 91 98 86 74 94 91 100 100 98 96
95 86 78 78 75 64 39 22 13 8 6 11 45 72 100 99 100 98 68 78 98 97 100 100 100 100 100 98 100 97 100 99 98 99 96 99 100 96 93 100 94 98 92

GFSMA_700_rhum_309.txt.gz
RH
79 84 79 64 59 61 57 94 92 100 94 58 21 12 8 7 6 6 7 7 6 6 7 11 9 6 7 7 8 9 10 10 10 11 11 12 13 12 12 12 12 12 12
92 84 81 74 76 53 88 91 58 84 78 41 12 10 8 7 7 6 6 6 6 6 6 7 9 7 7 7 8 9 10 10 10 11 11 12 12 12 12 12 11 11 11
100 99 91 83 87 84 65 46 42 34 25 18 12 9 8 6 7 7 6 6 5 5 6 6 7 14 8 9 9 9 10 11 11 11 11 12 12 12 12 12 12 11 11
83 99 98 92 96 90 86 75 57 47 34 23 12 10 10 7 7 8 7 6 6 5 5 5 13 88 84 10 11 10 10 10 11 12 12 12 12 12 12 12 11 11 11
96 95 96 100 100 100 99 99 98 85 50 28 16 12 11 9 7 8 8 7 6 6 6 6 7 63 94 91 19 11 11 11 11 11 12 12 12 12 12 12 11 11 12
96 99 97 98 100 100 96 99 89 96 86 46 24 15 12 11 9 7 8 8 7 7 7 8 8 26 86 97 64 19 14 12 12 12 12 12 12 12 12 12 12 12 12
90 100 100 99 98 100 97 94 95 100 90 72 44 20 13 12 11 8 8 8 8 8 8 9 10 24 92 100 98 43 27 16 13 13 13 13 13 13 13 13 13 13 14
24 54 95 100 100 100 97 97 98 99 88 74 63 33 20 14 11 10 8 7 9 10 10 11 13 15 91 93 99 93 55 27 17 14 14 14 14 14 14 15 15 16 17
10 9 26 46 79 100 100 99 100 99 99 91 73 60 35 18 14 12 9 8 9 9 11 12 13 18 83 93 96 85 73 51 36 24 18 16 16 16 18 18 19 20 25
15 12 10 10 27 65 99 99 100 99 100 99 86 64 58 31 22 18 14 10 9 9 11 13 14 29 56 77 81 99 75 83 49 30 25 19 19 18 20 26 29 32 38
19 15 10 9 8 26 71 100 100 100 97 98 99 71 72 60 28 22 18 16 14 12 11 14 20 43 56 79 84 99 94 72 55 33 31 25 22 22 27 32 44 60 67
22 17 13 9 7 12 28 62 100 100 100 98 99 98 62 69 57 33 23 18 15 20 18 16 18 32 50 70 66 93 99 99 55 43 36 30 27 26 35 38 51 88 93
12 11 10 8 7 6 13 33 69 100 100 98 99 99 98 85 87 75 54 25 25 22 21 18 20 29 34 65 62 84 90 100 82 57 45 38 36 35 41 54 59 91 100
9 9 8 7 6 5 6 12 43 71 100 99 99 100 100 93 98 98 76 62 31 30 25 20 19 23 35 94 92 97 99 98 77 75 52 52 48 64 48 79 90 94 92
7 7 7 7 6 5 5 7 18 81 95 96 100 100 99 100 100 95 92 76 71 40 26 22 19 22 32 45 67 98 78 100 94 58 47 55 52 57 75 83 93 91 93
4 4 5 6 6 5 4 5 16 71 83 100 96 100 99 99 90 100 90 94 78 91 48 28 24 22 26 37 71 99 47 68 52 51 48 52 52 56 71 83 85 89 93
4 3 3 4 5 5 5 4 7 26 84 84 100 82 100 100 99 97 99 98 86 83 80 45 27 27 22 28 29 36 67 52 84 52 58 57 92 55 71 65 80 87 87
12 8 4 3 3 3 4 5 4 12 31 91 99 100 100 100 98 100 100 95 96 90 98 90 36 25 23 21 24 25 25 25 34 34 40 47 56 41 47 68 83 86 88
25 18 17 8 3 2 3 3 4 5 18 82 99 100 100 100 100 100 99 99 98 99 98 100 98 35 26 27 26 26 21 19 19 18 32 33 24 31 51 85 93 92 85
44 35 29 24 12 4 2 2 3 4 5 16 81 99 100 99 100 100 97 99 100 100 100 100 100 99 44 26 30 29 26 20 18 19 20 24 22 24 50 58 57 55 52
63 56 43 36 32 20 5 2 2 2 3 5 16 97 98 100 100 100 96 95 100 99 99 99 100 97 98 41 26 24 22 25 22 22 23 23 24 24 28 28 31 40 80
77 72 64 54 42 36 25 10 3 2 2 3 4 52 94 99 100 98 97 100 100 99 99 100 98 100 93 80 27 22 25 23 23 26 33 30 40 44 38 40 65 82 91
88 86 77 70 60 47 38 32 15 5 2 2 3 5 85 97 99 100 99 100 99 98 100 95 95 87 86 82 40 25 25 22 25 41 40 49 64 74 70 57 78 95 98
93 90 81 71 66 63 54 44 36 20 6 2 2 3 19 88 100 99 98 100 100 100 99 98 74 83 98 98 100 54 25 26 32 45 43 73 72 72 87 92 93 98 83
91 88 84 77 70 60 63 62 58 48 21 3 2 2 3 34 88 98 98 98 100 99 99 97 88 90 100 99 100 91 41 35 42 49 51 97 87 93 87 93 97 95 97
94 91 86 89 89 76 65 64 71 66 45 10 2 2 2 3 26 91 99 97 87 97 100 99 98 89 100 100 100 99 66 45 49 69 68 92 82 97 99 99 98 88 97